Regional Weather Roundup
Issued by NWS

Home | Current Version | Previous Version | Text Only | Print | Product List | Glossary On
Versions: 1 2 3 4 5 6 7 8 9 10 11 12 13 14 15 16 17 18 19 20 21 22 23 24 25 26 27 28 29 30 31 32 33 34 35 36 37 38 39 40 41 42 43 44 45 46 47 48 49 50
000
ASUS44 KFWD 240801
RWRTX
NORTH TEXAS HOURLY WEATHER ROUNDUP
NATIONAL WEATHER SERVICE FORT WORTH TX
300 AM CDT TUE APR 24 2018

NOTE: "FAIR" INDICATES FEW OR NO CLOUDS BELOW 12,000 FEET WITH NO
SIGNIFICANT WEATHER AND/OR OBSTRUCTIONS TO VISIBILITY.

TXZ118-119-240900-
DALLAS/FORT WORTH METROPLEX

CITY           SKY/WX    TMP DP  RH WIND       PRES   REMARKS
DFW AIRPORT    FAIR      59  52  77 CALM      30.01F
DALLAS LOVE    FAIR      60  53  77 CALM      30.02F
FTW MEACHAM    FAIR      60  51  72 VRB3      30.02F
DAL-EXECUTIVE  FAIR      57  52  83 CALM      30.02F
FTW-ALLIANCE   FAIR      52  50  93 CALM      30.02F
FTW-NAS-JRB    FAIR      58  50  75 CALM      30.03F
FTW-SPINKS     FAIR      52  50  92 CALM      30.05S
ARLINGTON      FAIR      52  52 100 CALM      30.03S
GRAND PRAIRIE  FAIR      61  52  71 SW3       30.05S
ADDISON        FAIR      60  52  76 CALM      30.04F
MESQUITE       FAIR      54  51  90 CALM      30.03F
LANCASTER      FAIR      56  53  89 CALM      30.04F
$$

TXZ091>094-102>105-117-120-121-131>134-240900-
NORTH CENTRAL TEXAS

CITY           SKY/WX    TMP DP  RH WIND       PRES   REMARKS
SHRMAN/DENISON FAIR      53  50  90 CALM      30.05S
GAINESVILLE    FAIR      51  48  90 CALM      30.06S
BOWIE          FAIR      51  48  91 CALM      30.04F
BRIDGEPORT     FAIR      49  49 100 CALM      30.05S
DECATUR        FAIR      58  49  70 CALM      30.03F
DENTON         FAIR      52  51  97 NW5       30.03S
MCKINNEY       FAIR      52  52 100 CALM      30.03F
BONHAM         FAIR      52  50  92 NW3       30.03F
ROCKWALL       FAIR      57  53  85 MISG      30.03F
TERRELL        FAIR      53  50  89 CALM      30.03F
WAXAHACHIE     FAIR      56  54  95 CALM      30.04F
CLEBURNE       FAIR      57  54  88 CALM      30.05F
GRANBURY       FAIR      52  49  89 CALM      30.05S
$$

TXZ083>090-098>101-113>116-127>130-139>142-154-155-240900-
WESTERN NORTH TEXAS

CITY           SKY/WX    TMP DP  RH WIND       PRES   REMARKS
WICHITA FALLS  FAIR      55  48  77 E6        30.03F
WF-KICKAPOO    FAIR      56  49  79 E6        30.06S
VERNON         FAIR      54  46  76 E3        30.05S
ABILENE        FAIR      53  46  77 SE8       30.06S
ABILENE-DYESS  FAIR      58  43  56 SE9       30.05S
GRAHAM           N/A     51  49  92 CALM      30.03S
BRECKENRIDGE   FAIR      58  46  64 SE7       30.05R
EASTLAND       FAIR      47  44  90 CALM      30.06F
RANGER         FAIR      55  47  73 SW6       30.07S
MINERAL WELLS  FAIR      54  48  80 CALM      30.03S
STEPHENVILLE   FAIR      53  47  81 CALM      30.09S
COMANCHE       FAIR      56  48  75 S6        30.08R
COLEMAN        FAIR      55  41  60 CALM      30.06F
BRADY          FAIR      59  43  55 E7        30.05S
$$

TXZ143>147-156>162-174-175-240900-
CENTRAL TEXAS

CITY           SKY/WX    TMP DP  RH WIND       PRES   REMARKS
WACO           FAIR      56  53  90 SW9       30.06R
WACO-MCGREGOR    N/A     56  52  86 SW3       30.07S
HILLSBORO      FAIR      57  54  89 S9        30.03S
CORSICANA      FAIR      56  53  90 CALM      30.03F
MEXIA          FAIR      55  51  88 S6        30.04R
HEARNE         FAIR      56  56 100 CALM      30.07S
CAMERON        FAIR      60  53  76 CALM      30.06F
TEMPLE         FAIR      57  51  80 CALM      30.07F
KILLEEN        NOT AVBL
KILLEEN-SKYLRK FAIR      56  51  84 CALM      30.06F
FORT HOOD      FAIR      60  51  72 NE3       30.02F
GATESVILLE     FAIR      55  50  82 CALM      30.08F
HAMILTON       FAIR      56  49  77 S5        30.08F
LAMPASAS       FAIR      59  48  67 CALM      30.05F
$$

TXZ095>097-106>112-122>126-135>138-148>153-164>167-240900-
EAST TEXAS

CITY           SKY/WX    TMP DP  RH WIND       PRES   REMARKS
PARIS          FAIR      52  50  93 W5        30.02F
SULPHUR SPRNGS FAIR      55  53  95 CALM      30.04F
MOUNT PLEASANT FAIR      56  54  91 W5        30.03S
GILMER         FAIR      56  52  89 W3        30.01F
MINEOLA        FAIR      52  50  93 W3        30.03S
TYLER          FAIR      54  52  93 CALM      30.02F
LONGVIEW       FAIR      54  53  97 W5        30.00F
MARSHALL       FAIR      53  50  89 CALM      30.02S
ATHENS         FAIR      50  50 100 CALM      30.01F
PALESTINE      FAIR      52  51  97 CALM      30.03F
JACKSONVILLE   FAIR      55  53  91 CALM      30.04F
HENDERSON      FAIR      50  50  99 CALM      30.03S
CENTER         FAIR      51  49  95 CALM      30.02S
NACOGDOCHES      N/A     49  48  97 CALM      30.03F
LUFKIN         FAIR      52  51  97 CALM      30.02F
$$

SUPPLEMENTAL OBSERVATIONS (NWS FORT WORTH AREA)

CITY           SKY/WX    TMP DP  RH WIND       PRES   REMARKS
$$

SUPPLEMENTAL OBSERVATIONS (NWS NORMAN AREA)

CITY           SKY/WX    TMP DP  RH WIND       PRES   REMARKS
GOODLETT         N/A     54  42  63 E7        30.05R
ODELL            N/A     57  48  72 E9        30.05F
CROWELL          N/A     55  45  69 E5        30.05S
KNOX CITY        N/A     56  44  63 SE8       30.05S
SEYMOUR          N/A     54  46  73 SE3       30.05S
$$

SUPPLEMENTAL OBSERVATIONS (NWS SAN ANGELO AREA)

CITY           SKY/WX    TMP DP  RH WIND       PRES   REMARKS
WEINERT          N/A     59  44  58 SE9       30.05S
HASKELL          N/A     58  45  62 SE6       30.05S
THROCKMORTON     N/A     55  47  76 S6        30.06S
STAMFORD         N/A     56  44  63 S9        30.06S
CLYDE            N/A     56  46  70 SE8       30.08S
$$

SUPPLEMENTAL OBSERVATIONS (NWS SHREVEPORT AREA)

CITY           SKY/WX    TMP DP  RH WIND       PRES   REMARKS
$$

SUPPLEMENTAL OBSERVATIONS ARE A COLLECTION OF AUTOMATED INSTRUMENTS
THAT ARE MAINTAINED BY A VARIETY OF FEDERAL AND STATE AGENCIES.
CERTAIN ELEMENTS...SUCH AS HUMIDITY VALUES AND SUSTAINED WIND
SPEEDS...MAY BE APPROXIMATED.




USA.gov is the U.S. government's official web portal to all federal, state and local government web resources and services.